COSMOS 2456 (730)

Last updated on Mon Oct 13 2025 00:03:19 GMT+0000 (Coordinated Universal Time)

1 36111U 09070A 25285.36683538 .00000033 00000+0 00000+0 0 9996 2 36111 64.8659 79.4353 0001399 333.5231 242.4298 2.13103543123149
UTC large
Height (km)
Speed (km/s)
/
Latitude / Longitude
Inclination (degrees)
Orbital Period (minutes)
Azimuth
Elevation
Range (km)
Doppler Factor

Next 0 passes for location: London (51.5072 / 0.1276)

Sorry there are no passes over London.